Wind_Speed
12 12 11 10 9 12 11 11 9 8 7 5 4 3 3 3 3 2 3 3 4 4 4 4 4 4 4 4 4 4 4 4 4 4 4 5 5 6 6 6 7 7 7 8 8 8 8 9 9
10 10 9 9 11 11 11 10 9 7 6 5 4 3 3 3 2 1 1 1 1 1 2 2 2 2 2 3 3 3 3 3 3 3 4 4 4 5 5 6 6 6 6 6 6 7 7 7 8
7 8 7 7 10 10 10 9 9 7 6 5 5 4 3 2 2 2 2 2 2 1 1 1 1 1 1 2 2 2 2 3 3 3 4 4 4 4 5 5 6 6 6 6 6 6 6 7 7
6 6 6 8 9 9 9 9 8 7 6 6 6 5 4 4 4 4 4 4 4 4 4 4 3 3 3 3 3 3 3 3 3 4 4 4 4 4 4 5 5 5 6 6 6 6 6 6 7
5 5 6 7 7 8 8 8 8 7 7 6 6 6 5 5 6 6 7 7 7 7 7 7 7 6 6 6 6 6 5 5 5 5 5 5 5 5 5 5 5 5 5 6 6 5 5 5 6
4 6 5 6 6 7 7 8 8 8 8 8 8 7 7 8 8 9 9 10 10 10 10 10 10 10 9 9 9 9 9 8 8 8 7 7 7 6 6 6 6 6 6 6 6 6 5 5 5
3 3 5 6 7 8 8 9 9 10 10 11 11 10 10 11 11 12 12 12 13 13 13 13 13 13 13 13 12 12 12 11 11 11 10 10 9 9 8 8 8 7 7 7 6 6 5 5 5
4 5 5 7 8 10 11 10 11 11 12 13 13 13 12 14 14 15 15 15 16 16 16 16 16 16 16 16 16 16 16 15 15 14 13 13 12 11 11 10 10 9 9 8 8 7 6 6 6
6 6 6 9 11 12 12 12 13 14 14 15 15 16 16 17 18 18 18 19 19 19 19 19 19 19 19 19 19 19 19 19 19 18 17 16 15 14 14 13 12 12 11 10 10 9 8 8 7
7 6 8 12 13 13 14 15 16 16 16 17 18 19 19 20 20 21 21 22 22 22 23 23 23 23 23 22 22 22 22 21 21 21 21 20 19 18 17 17 16 15 14 13 12 11 10 10 9
9 9 11 12 14 15 15 17 19 19 20 21 21 22 22 23 24 25 25 25 26 26 26 26 27 27 26 26 26 25 25 25 24 24 24 24 23 22 20 19 18 17 17 16 15 13 12 11 11
11 12 13 14 16 17 18 19 21 22 23 24 24 26 26 27 27 28 28 28 28 29 29 30 30 30 30 30 31 30 30 29 28 28 27 26 25 24 23 23 21 20 19 18 18 17 15 14 13
13 14 15 17 18 19 21 21 23 24 26 27 28 28 29 30 30 31 31 32 32 32 33 33 33 33 34 34 34 33 33 33 32 31 31 30 28 27 26 26 24 23 21 20 20 19 18 17 16
15 16 17 18 19 21 23 23 24 26 27 28 30 30 31 31 32 33 33 34 35 35 36 36 37 37 37 38 37 37 36 36 34 33 33 32 31 31 30 29 28 26 25 24 23 22 21 20 19
17 18 19 20 20 23 25 24 25 27 29 30 31 32 33 34 34 35 35 36 36 37 37 38 38 39 40 40 40 40 40 39 37 36 36 35 34 33 33 32 31 30 28 27 26 25 24 22 21
18 19 21 20 21 24 27 28 27 29 31 32 33 34 35 35 35 35 36 37 37 38 38 39 39 39 39 40 40 41 41 40 39 38 37 37 36 36 35 35 34 33 31 30 29 27 26 25 23
16 18 22 24 22 27 29 30 29 30 32 33 34 35 36 36 36 36 36 37 38 38 38 39 39 39 39 40 40 40 41 40 40 39 38 38 37 36 36 36 34 34 34 32 32 30 29 28 26
16 17 21 27 27 28 30 30 30 30 31 33 34 35 35 35 36 35 35 36 37 37 38 38 38 38 38 39 39 39 40 41 41 40 39 38 38 37 36 35 35 35 35 34 34 33 32 31 30
17 19 22 26 26 29 30 30 31 30 30 32 32 33 33 34 34 34 34 35 35 35 36 36 36 37 37 38 38 39 39 40 40 40 40 39 39 38 37 36 35 35 36 35 36 36 34 33 33
18 19 22 25 24 27 30 31 30 28 29 29 30 31 31 31 32 32 32 32 32 32 33 33 34 34 35 36 36 37 38 38 39 39 40 40 39 39 37 37 37 36 37 36 36 36 35 34 34
17 18 21 24 25 26 28 29 28 28 28 28 29 29 29 29 29 29 30 30 29 29 30 30 30 30 31 31 32 33 35 35 36 37 37 38 39 39 38 37 38 37 36 37 37 37 36 35 35
17 18 20 22 24 26 26 28 28 29 30 30 30 29 29 28 28 28 28 28 28 27 27 27 27 27 27 28 28 29 30 31 32 34 34 35 36 37 37 37 37 37 37 37 38 38 38 38 36
16 17 18 20 21 21 22 24 27 28 31 31 30 29 29 28 29 28 27 27 26 25 25 24 24 23 23 24 24 25 26 27 28 30 30 31 33 34 35 36 36 36 36 35 36 37 37 37 36
15 16 17 17 18 19 21 22 25 28 30 29 29 29 28 28 28 28 27 26 25 24 23 22 21 20 20 20 20 20 21 22 24 26 26 28 29 30 31 34 34 35 35 34 34 35 36 36 37
13 15 16 16 17 19 21 21 23 25 26 26 27 27 28 28 27 26 26 25 24 23 22 21 20 18 17 17 17 17 17 17 18 20 22 24 26 27 28 30 31 32 33 33 33 34 35 35 36
11 12 13 13 11 15 18 19 21 22 23 25 26 26 27 27 26 26 25 24 23 22 21 19 18 17 16 16 15 15 14 13 14 15 17 20 23 25 26 27 28 29 31 32 33 33 34 34 35
10 10 11 12 12 12 16 18 19 21 23 25 26 27 27 27 27 26 25 24 23 22 20 19 18 17 17 16 15 14 13 12 12 12 13 15 17 20 22 23 24 26 28 30 32 33 33 33 33
8 9 10 11 12 12 14 18 22 22 24 25 26 27 27 27 27 26 25 24 23 22 21 20 20 18 17 16 15 14 13 11 11 10 10 11 12 14 17 19 21 22 23 26 28 29 30 31 32
7 8 10 11 13 13 15 17 20 21 23 24 26 27 27 27 26 25 25 25 24 24 23 22 20 19 18 17 17 16 14 12 10 9 8 8 9 10 12 15 18 21 22 24 26 27 28 29 31
7 9 10 11 13 14 15 16 19 21 22 24 25 26 27 27 26 26 25 26 25 25 24 24 22 20 19 19 18 17 16 14 12 10 8 8 7 8 8 11 13 17 20 21 23 24 26 27 29
Wind_Direction
65 65 64 65 61 55 52 54 54 56 60 63 65 70 75 80 82 85 83 88 91 93 95 102 105 110 115 122 126 131 138 147 165 180 187 195 202 207 214 218 223 225 228 230 234 240 242 242 241
59 60 57 57 54 51 49 47 46 48 46 44 38 37 44 52 56 59 56 54 64 78 85 101 114 121 128 135 141 147 154 162 172 182 188 196 204 212 217 221 223 225 227 230 235 241 241 241 239
50 52 52 48 50 42 41 40 37 36 32 26 23 23 17 10 357 326 302 303 307 301 292 283 251 214 196 191 190 189 192 193 193 195 197 201 208 214 218 220 223 224 226 227 232 238 241 242 239
37 37 37 38 38 33 28 24 20 17 13 11 11 2 347 334 319 304 294 287 285 283 277 269 265 260 252 246 242 237 235 232 225 219 215 214 217 220 224 226 226 227 230 231 234 239 242 241 239
24 28 28 19 21 18 11 3 1 356 351 349 348 345 331 319 306 295 290 288 285 282 279 273 267 265 262 259 257 254 252 250 248 244 240 235 233 233 233 233 233 234 236 238 240 242 242 240 238
16 7 11 352 359 353 348 344 343 341 336 329 327 327 317 307 300 293 288 283 281 279 276 274 270 268 267 265 262 261 259 258 256 255 253 250 247 245 243 242 242 241 242 242 244 244 245 244 241
345 347 336 330 334 329 324 326 328 327 324 320 319 318 311 305 301 294 289 283 280 279 276 273 269 266 264 263 263 263 262 261 260 259 258 256 254 251 249 248 246 246 246 246 248 248 249 246 243
311 318 319 314 311 312 314 313 314 316 315 312 311 310 306 301 299 295 292 289 285 281 277 274 271 268 266 263 260 261 261 260 259 259 258 258 256 254 252 251 249 249 250 249 249 250 249 247 244
305 313 302 300 305 307 306 306 306 307 305 305 304 303 299 297 296 293 290 287 285 282 279 276 272 270 268 266 266 264 261 259 257 257 257 257 257 256 254 252 251 252 252 251 251 250 249 247 244
300 301 287 293 300 302 301 303 305 304 301 301 300 297 297 295 292 289 287 285 283 281 279 278 275 274 271 269 267 265 264 264 261 259 256 255 255 255 255 254 252 252 253 252 251 250 249 247 245
298 293 291 294 298 301 301 302 303 303 301 300 298 296 295 294 291 289 287 285 283 280 279 278 276 276 273 271 270 268 267 265 264 262 258 255 254 253 253 253 255 255 254 253 251 249 250 249 246
297 297 297 299 301 302 303 303 303 303 302 300 299 296 295 293 290 288 287 285 283 281 279 278 276 274 273 272 273 271 270 269 266 265 261 258 257 256 254 252 254 255 256 254 253 251 248 247 248
296 298 300 301 303 304 304 305 304 302 301 300 299 297 296 294 291 288 286 285 283 282 280 279 277 275 275 273 272 272 271 270 269 268 266 264 263 260 257 253 253 254 254 253 252 252 249 247 246
298 301 302 303 305 305 305 306 304 302 302 301 299 297 296 294 292 290 288 285 283 282 280 279 279 276 274 274 273 272 271 270 268 268 266 264 264 262 259 257 255 254 252 252 251 250 249 249 246
297 300 302 305 306 306 306 309 307 304 303 302 300 298 296 294 292 290 288 286 284 282 280 280 278 276 274 274 273 272 271 271 269 269 267 265 263 261 258 257 257 255 252 250 249 249 248 249 247
298 304 306 307 311 310 310 311 310 307 305 303 302 300 299 297 294 292 289 287 285 284 282 280 279 278 276 274 273 271 272 271 268 268 268 266 265 263 259 258 256 254 251 250 250 248 248 248 248
308 314 309 308 315 313 311 311 311 310 308 306 305 303 301 299 297 295 292 290 287 285 283 282 280 278 277 275 273 272 271 270 269 268 266 265 265 264 262 260 258 255 251 249 248 248 249 249 248
303 305 301 305 315 313 313 313 314 314 313 311 309 307 305 303 300 298 295 292 290 287 285 282 280 278 276 275 274 272 271 269 269 268 266 264 264 262 260 259 257 256 253 250 248 249 249 248 247
299 300 300 305 313 313 315 315 316 317 316 315 313 312 310 308 305 303 301 298 294 291 288 285 282 279 277 275 273 272 270 268 267 266 264 263 261 260 260 258 256 254 253 251 248 249 249 247 245
297 300 302 308 313 314 316 318 319 321 322 321 319 317 315 312 310 308 307 304 300 296 292 289 286 283 279 277 274 272 270 267 265 264 262 260 259 258 257 256 254 252 251 250 249 248 248 247 244
299 304 308 312 317 317 318 321 326 328 329 329 326 324 321 320 318 315 314 312 308 303 298 294 290 287 284 280 277 275 271 268 266 264 261 259 258 256 255 254 253 251 250 250 248 247 246 245 244
303 311 313 317 320 323 330 331 335 335 336 334 332 330 328 327 325 323 320 318 314 310 305 300 296 293 289 286 282 279 274 270 267 263 261 259 257 255 253 252 251 249 249 250 247 247 244 243 243
308 314 318 320 324 331 338 335 334 337 338 336 335 335 335 334 332 330 327 325 321 318 315 310 304 299 295 292 288 284 278 273 268 263 260 258 256 255 253 250 249 248 247 246 245 245 243 241 240
313 318 321 324 334 342 341 333 331 337 339 338 339 340 340 339 337 336 334 331 329 328 325 321 315 308 304 300 295 291 284 278 272 265 261 258 255 254 253 251 249 245 244 243 242 241 242 241 240
319 326 334 344 345 333 333 332 336 340 342 343 345 345 345 344 342 341 341 340 338 336 334 331 328 322 316 312 306 300 293 284 278 270 264 259 256 254 252 249 248 243 241 240 239 239 239 240 239
328 334 342 347 335 328 338 343 347 349 348 349 350 351 351 351 349 349 350 349 348 347 346 343 341 337 332 328 324 317 305 295 287 279 268 262 258 255 252 248 245 242 240 239 238 238 238 238 237
334 342 350 352 355 353 345 353 357 355 356 356 357 356 356 357 356 357 358 358 358 357 357 356 354 350 346 343 340 334 327 316 304 292 278 269 264 258 252 247 244 240 238 237 237 237 237 237 235
343 352 357 1 5 5 353 354 360 1 1 0 0 360 360 360 2 3 3 4 5 5 4 2 1 360 358 357 356 353 345 336 328 314 296 282 273 266 256 248 243 241 238 236 234 235 235 234 232
357 3 5 7 10 8 2 4 5 4 3 3 3 4 5 6 7 8 9 10 10 10 11 10 9 8 8 6 5 5 1 352 342 333 318 300 288 280 266 249 242 240 237 235 235 236 235 231 229
7 7 9 9 9 8 9 10 8 7 6 6 7 9 10 11 12 13 13 14 15 15 16 16 17 17 14 11 11 12 12 8 359 348 335 324 308 297 282 255 242 239 236 235 234 233 231 230 227
Height
5924 5923 5923 5923 5923 5921 5920 5920 5919 5919 5918 5918 5917 5917 5917 5918 5919 5920 5918 5916 5916 5916 5915 5915 5915 5914 5914 5914 5913 5913 5913 5912 5912 5912 5912 5912 5912 5912 5912 5912 5912 5912 5912 5912 5912 5913 5913 5913 5913
5926 5925 5925 5925 5923 5923 5922 5922 5921 5921 5920 5919 5919 5919 5919 5919 5919 5918 5917 5917 5917 5917 5916 5916 5915 5915 5915 5915 5914 5914 5913 5913 5913 5913 5912 5912 5912 5912 5912 5912 5912 5912 5912 5912 5912 5912 5912 5912 5913
5928 5927 5927 5926 5924 5924 5924 5923 5922 5922 5921 5921 5921 5921 5920 5920 5920 5919 5918 5918 5918 5917 5917 5916 5916 5916 5915 5915 5915 5914 5914 5914 5913 5913 5913 5912 5912 5912 5912 5912 5912 5911 5911 5911 5911 5911 5911 5911 5912
5929 5929 5928 5927 5925 5925 5925 5924 5923 5923 5922 5922 5922 5921 5920 5920 5920 5919 5918 5918 5918 5917 5917 5916 5916 5915 5915 5915 5915 5914 5914 5914 5913 5913 5913 5913 5912 5912 5912 5912 5911 5911 5911 5911 5911 5911 5911 5911 5911
5930 5929 5927 5927 5926 5926 5925 5925 5924 5924 5923 5922 5922 5921 5920 5920 5919 5919 5918 5918 5917 5917 5916 5916 5915 5915 5914 5914 5914 5914 5913 5913 5913 5913 5912 5912 5912 5912 5911 5911 5911 5911 5911 5911 5910 5910 5910 5910 5910
5931 5930 5927 5928 5927 5926 5926 5925 5925 5924 5923 5922 5922 5921 5920 5919 5919 5918 5917 5916 5916 5915 5915 5914 5914 5913 5913 5913 5912 5912 5912 5912 5912 5912 5911 5911 5911 5911 5911 5911 5910 5910 5910 5910 5910 5910 5909 5909 5909
5932 5931 5929 5928 5928 5927 5927 5926 5925 5924 5923 5922 5921 5921 5919 5918 5917 5916 5915 5914 5914 5913 5913 5912 5911 5911 5911 5910 5910 5910 5910 5910 5910 5910 5910 5910 5910 5910 5910 5910 5909 5909 5909 5909 5909 5909 5909 5909 5908
5931 5932 5930 5927 5927 5927 5926 5925 5925 5924 5923 5921 5920 5919 5918 5917 5915 5914 5913 5912 5911 5910 5910 5909 5908 5908 5907 5907 5907 5907 5907 5907 5907 5907 5907 5907 5908 5908 5908 5908 5908 5908 5908 5908 5908 5908 5908 5908 5908
5931 5932 5930 5928 5927 5927 5925 5925 5924 5923 5921 5919 5918 5917 5916 5914 5913 5911 5910 5909 5908 5907 5906 5905 5904 5904 5904 5903 5903 5903 5902 5903 5903 5903 5904 5904 5905 5905 5905 5906 5906 5906 5906 5906 5906 5907 5907 5907 5907
5931 5931 5929 5928 5927 5926 5925 5924 5922 5921 5919 5917 5916 5915 5913 5911 5909 5907 5906 5905 5904 5903 5902 5901 5900 5899 5899 5898 5898 5898 5898 5898 5899 5899 5899 5900 5901 5902 5902 5902 5903 5903 5904 5904 5904 5905 5905 5905 5906
5930 5930 5929 5927 5926 5925 5924 5922 5920 5919 5917 5915 5913 5911 5909 5907 5905 5903 5901 5900 5899 5897 5896 5895 5894 5894 5893 5893 5892 5892 5893 5893 5893 5894 5894 5895 5896 5897 5898 5899 5899 5900 5901 5901 5902 5902 5903 5904 5904
5928 5928 5927 5926 5924 5923 5922 5920 5918 5915 5913 5911 5909 5906 5904 5902 5900 5898 5896 5894 5892 5891 5890 5889 5888 5887 5887 5886 5886 5886 5886 5887 5887 5888 5889 5890 5890 5891 5893 5894 5895 5896 5897 5898 5899 5899 5900 5901 5902
5927 5926 5925 5923 5922 5920 5918 5917 5915 5912 5909 5906 5904 5901 5899 5897 5894 5892 5890 5888 5886 5884 5883 5882 5881 5880 5879 5879 5879 5879 5880 5880 5880 5881 5882 5883 5885 5885 5887 5888 5890 5891 5892 5893 5895 5896 5897 5898 5899
5925 5923 5922 5921 5919 5917 5915 5914 5911 5908 5905 5902 5899 5896 5893 5890 5888 5885 5883 5880 5878 5877 5875 5874 5872 5872 5871 5870 5870 5871 5871 5871 5871 5873 5875 5876 5878 5879 5881 5882 5884 5885 5887 5888 5890 5891 5893 5894 5895
5922 5921 5919 5918 5916 5914 5911 5910 5907 5903 5900 5897 5893 5890 5887 5884 5881 5878 5876 5873 5871 5869 5867 5865 5864 5863 5862 5861 5862 5862 5862 5862 5863 5864 5865 5867 5869 5871 5873 5875 5877 5878 5880 5882 5884 5886 5888 5889 5891
5920 5918 5916 5914 5912 5909 5909 5905 5903 5898 5895 5891 5887 5883 5880 5877 5873 5871 5868 5865 5862 5860 5858 5856 5854 5853 5852 5852 5852 5852 5852 5852 5854 5855 5856 5857 5859 5862 5865 5867 5869 5871 5873 5876 5878 5880 5882 5884 5886
5918 5916 5913 5910 5909 5906 5904 5900 5898 5893 5889 5885 5880 5876 5872 5869 5866 5862 5859 5856 5853 5851 5848 5847 5845 5843 5842 5842 5842 5842 5842 5842 5843 5846 5847 5849 5850 5853 5856 5858 5860 5862 5866 5868 5871 5873 5876 5878 5881
5917 5915 5912 5907 5905 5902 5899 5895 5892 5888 5884 5878 5874 5869 5865 5861 5857 5854 5850 5847 5843 5841 5838 5836 5835 5833 5832 5831 5831 5831 5831 5832 5833 5835 5837 5839 5841 5843 5846 5849 5851 5853 5857 5860 5863 5866 5869 5872 5874
5914 5913 5910 5906 5903 5899 5895 5891 5887 5883 5878 5873 5868 5863 5858 5854 5849 5845 5842 5838 5834 5831 5828 5826 5824 5823 5822 5821 5820 5820 5821 5821 5822 5824 5826 5828 5831 5833 5836 5839 5842 5844 5848 5851 5855 5858 5861 5864 5867
5912 5910 5907 5903 5901 5896 5891 5887 5882 5878 5874 5868 5863 5858 5852 5848 5842 5838 5834 5830 5826 5823 5819 5817 5815 5813 5811 5811 5810 5810 5810 5810 5811 5813 5815 5817 5820 5823 5826 5829 5832 5835 5838 5841 5845 5850 5853 5857 5860
5909 5907 5904 5901 5897 5893 5889 5883 5878 5873 5869 5864 5859 5853 5848 5842 5837 5832 5828 5823 5819 5815 5812 5809 5806 5804 5802 5801 5800 5799 5799 5800 5801 5802 5804 5806 5809 5812 5815 5819 5822 5825 5828 5833 5836 5841 5844 5848 5851
5907 5905 5902 5898 5894 5889 5885 5879 5873 5868 5864 5860 5855 5849 5844 5838 5832 5827 5822 5818 5813 5808 5805 5801 5798 5796 5794 5792 5791 5790 5790 5790 5791 5792 5794 5796 5798 5801 5804 5808 5811 5815 5819 5823 5827 5831 5835 5839 5843
5905 5902 5899 5895 5891 5887 5882 5878 5872 5867 5862 5857 5851 5845 5840 5834 5828 5823 5818 5813 5808 5803 5799 5795 5792 5789 5787 5785 5784 5782 5781 5781 5782 5783 5784 5786 5788 5791 5794 5797 5801 5805 5809 5813 5817 5822 5826 5830 5834
5902 5900 5897 5893 5889 5885 5882 5879 5872 5867 5861 5855 5849 5843 5837 5831 5825 5820 5814 5809 5804 5799 5795 5791 5787 5784 5782 5780 5777 5776 5774 5773 5774 5774 5776 5777 5779 5782 5784 5787 5791 5795 5799 5804 5808 5812 5817 5821 5826
5900 5898 5895 5890 5887 5885 5881 5878 5874 5867 5861 5855 5848 5842 5836 5830 5824 5818 5812 5806 5801 5796 5792 5788 5784 5780 5777 5775 5772 5770 5769 5767 5767 5767 5768 5769 5771 5773 5775 5778 5781 5785 5790 5794 5799 5803 5808 5813 5817
5899 5897 5894 5891 5889 5885 5880 5876 5873 5867 5861 5854 5848 5841 5835 5829 5823 5817 5811 5805 5800 5795 5790 5786 5782 5778 5775 5772 5769 5766 5764 5763 5762 5762 5762 5763 5764 5766 5768 5770 5773 5776 5781 5785 5790 5795 5799 5803 5808
5897 5895 5893 5890 5887 5884 5879 5875 5871 5866 5860 5854 5847 5841 5835 5828 5822 5816 5810 5805 5799 5794 5789 5785 5781 5777 5774 5770 5767 5764 5762 5760 5759 5757 5757 5757 5758 5759 5760 5763 5765 5768 5772 5776 5781 5786 5790 5795 5800
5897 5894 5892 5889 5886 5883 5880 5874 5870 5865 5860 5854 5848 5842 5835 5829 5823 5817 5811 5805 5800 5795 5790 5785 5781 5777 5773 5770 5766 5763 5760 5758 5756 5755 5754 5754 5754 5754 5755 5756 5759 5762 5765 5769 5773 5778 5782 5787 5791
5896 5894 5891 5889 5885 5882 5879 5877 5871 5866 5861 5855 5849 5843 5837 5830 5824 5818 5812 5807 5801 5796 5791 5786 5782 5778 5774 5770 5766 5763 5760 5757 5755 5753 5752 5751 5751 5751 5751 5752 5754 5757 5760 5763 5767 5771 5775 5779 5784
5895 5893 5891 5889 5886 5882 5879 5879 5871 5867 5861 5856 5850 5844 5838 5832 5826 5820 5814 5809 5803 5798 5793 5788 5783 5779 5775 5771 5767 5764 5760 5758 5755 5753 5751 5750 5749 5749 5749 5749 5751 5753 5755 5758 5761 5765 5769 5773 5777